Wind_Speed
20 24 20 16 15 14 16 18 16 17 16 17 17 17 17 17 16 16 16 15 17 17 18 18 18 18 18 19 19 20 20 19 19 19 18 18 18 19 18 17 18 18 17
29 24 20 17 16 15 16 18 17 17 17 16 17 18 17 15 15 15 15 15 17 18 18 19 20 19 20 20 20 20 20 20 18 18 18 18 17 17 16 16 18 17 16
31 25 21 19 17 16 15 16 17 17 17 17 16 16 15 16 15 15 15 17 17 18 18 19 19 20 20 21 22 21 20 19 17 16 19 17 17 16 16 16 16 16 16
31 26 22 17 18 16 15 14 14 15 15 16 16 15 16 19 16 17 16 17 17 18 18 18 18 18 19 20 20 18 18 18 19 19 19 16 15 15 15 16 15 16 16
31 27 21 19 18 17 15 14 14 13 14 15 15 17 18 17 15 15 16 16 17 18 18 19 19 20 20 19 18 18 17 17 17 18 17 17 15 15 15 15 14 14 14
30 26 22 20 18 17 15 14 14 14 14 14 15 17 16 15 15 16 16 16 17 17 18 17 17 18 17 17 16 15 14 15 17 18 19 17 16 14 14 14 13 14 13
29 26 23 21 18 17 15 14 14 14 13 14 15 17 17 15 15 15 15 16 16 17 17 15 15 16 14 15 15 15 16 16 17 18 19 17 15 14 13 13 13 13 13
30 26 24 20 19 17 14 14 14 14 14 14 15 16 16 15 15 15 15 15 16 16 16 15 16 13 16 17 14 15 17 16 15 17 16 16 15 14 12 11 13 12 12
29 27 24 20 18 16 15 15 14 14 14 14 14 17 16 16 16 15 15 15 15 15 15 15 16 15 16 13 14 14 13 12 15 14 15 14 13 14 11 12 12 11 11
29 28 25 22 19 17 15 15 15 16 14 14 14 16 17 16 15 14 18 16 15 15 15 14 15 15 15 13 12 13 13 12 13 13 14 15 14 13 11 10 11 9 9
24 27 26 23 22 18 17 17 17 15 15 14 15 17 17 17 16 16 17 16 13 13 13 14 14 13 13 12 12 11 12 10 12 12 13 15 12 13 11 8 10 9 7
24 29 27 25 24 20 18 19 19 17 16 16 17 18 18 17 17 16 15 14 13 12 13 13 14 14 14 12 10 9 11 12 10 11 11 12 12 11 11 9 10 9 7
32 30 30 27 25 22 21 20 20 19 18 17 17 17 17 17 17 15 15 13 13 13 15 13 13 13 13 10 9 12 13 9 10 11 11 10 8 8 10 9 9 9 7
30 32 31 29 27 24 21 22 21 20 20 19 18 18 17 18 16 17 15 16 14 13 14 14 12 12 10 8 7 9 9 10 9 10 11 10 7 7 8 7 9 8 7
28 31 32 30 28 26 22 23 22 22 22 21 20 18 18 17 17 17 16 16 14 14 13 14 11 10 7 7 7 5 7 12 10 11 11 10 8 7 8 8 9 7 8
27 32 33 31 29 27 24 24 24 22 21 21 20 19 19 17 17 18 18 17 15 14 14 12 9 7 6 9 7 6 5 7 10 10 11 11 10 8 8 8 9 10 9
33 32 35 33 31 29 25 24 25 24 22 21 21 20 20 18 18 18 19 18 17 16 14 12 9 10 9 10 8 8 7 7 8 10 11 11 11 10 9 8 9 10 12
28 34 35 33 34 31 28 25 25 25 23 22 21 22 22 20 20 18 18 18 15 17 16 15 11 11 11 9 8 8 8 8 7 9 12 12 12 11 11 11 11 11 11
36 37 38 36 35 33 30 28 27 24 23 22 22 23 23 22 19 22 19 17 17 19 19 18 16 15 15 12 11 9 10 12 13 11 13 14 16 13 13 14 14 13 12
36 40 42 39 36 33 31 27 26 24 22 23 24 25 23 23 20 21 20 17 20 21 19 20 18 17 16 13 12 12 12 12 14 17 15 17 17 19 16 16 16 16 15
37 39 40 38 37 34 32 30 26 24 24 28 25 25 25 23 21 20 22 19 20 20 19 20 18 17 15 13 10 12 15 17 17 18 17 16 19 15 19 15 15 14 15
38 39 41 42 40 38 35 33 28 24 15 17 26 26 25 25 22 22 22 22 22 21 21 21 20 18 15 12 6 4 3 3 8 17 18 17 19 22 20 22 16 20 20
35 38 40 43 43 40 37 32 24 23 15 16 23 28 26 26 22 23 21 22 21 22 23 23 23 22 18 15 18 6 1 3 3 2 9 18 20 20 24 26 26 21 22
32 36 40 42 44 43 39 35 31 26 20 19 23 27 27 27 25 23 19 22 22 21 23 25 24 25 21 16 10 20 15 7 2 3 1 5 15 18 19 24 26 28 29
30 34 35 42 44 42 41 38 31 26 26 21 21 24 27 29 29 27 24 22 22 22 23 23 24 27 27 23 19 8 13 19 17 9 3 7 7 14 22 24 25 27 28
30 30 34 36 42 43 43 38 37 32 26 23 21 22 24 27 30 30 29 26 25 24 25 25 24 25 27 28 27 21 15 7 8 9 8 11 10 12 17 24 25 26 27
Wind_Direction
181 166 164 156 150 140 132 127 126 125 124 129 129 127 125 121 114 104 98 107 107 107 107 111 113 111 109 108 109 109 114 114 115 112 112 105 101 103 101 100 102 101 99
164 165 163 160 156 147 138 133 131 126 125 131 133 136 135 128 118 112 107 114 111 112 109 110 110 111 110 115 118 117 115 115 109 107 107 105 101 103 103 99 96 97 99
160 163 163 162 158 152 145 136 133 132 132 130 130 133 142 136 124 118 113 114 114 110 109 108 111 112 114 116 119 118 117 114 111 111 116 104 101 102 103 99 98 99 98
158 161 163 162 161 157 152 142 137 135 132 131 133 131 134 140 133 125 119 118 122 114 113 112 111 112 113 118 116 113 113 117 117 117 115 108 104 102 102 98 98 95 94
159 163 162 160 158 152 151 148 140 140 137 136 137 136 130 133 132 125 123 120 121 119 113 115 117 120 126 124 126 121 110 116 119 124 119 117 107 109 104 106 104 102 101
161 163 160 156 151 152 154 152 148 146 144 146 142 145 142 137 137 131 130 129 122 119 119 120 120 121 122 127 130 128 125 125 124 124 124 121 114 113 106 102 104 101 100
162 163 162 157 155 155 155 154 150 149 151 148 144 150 148 149 141 132 133 131 124 123 123 119 123 120 123 129 124 131 140 130 127 124 122 122 116 113 108 110 110 103 104
163 164 161 160 161 158 157 156 153 152 155 150 149 150 145 147 140 139 135 134 130 123 125 129 126 116 123 122 120 131 135 129 128 130 127 126 119 118 114 112 108 105 105
167 166 164 164 162 158 162 159 159 157 152 153 150 150 151 147 146 146 142 138 130 129 133 137 132 117 120 118 126 131 138 132 135 136 134 134 127 122 120 120 108 111 108
170 170 167 166 166 165 159 162 163 159 157 155 153 158 153 152 154 149 146 142 138 134 142 142 138 126 123 122 130 145 147 140 144 144 147 141 131 135 123 124 115 114 108
169 174 172 170 167 169 161 161 165 165 162 156 155 157 155 158 158 159 153 149 141 141 140 138 141 136 127 122 131 143 158 143 155 152 147 148 142 139 134 133 126 113 114
177 179 177 175 173 169 163 165 170 164 165 160 163 163 163 164 163 165 159 158 146 140 141 139 142 148 141 130 133 147 159 170 157 156 155 154 147 153 145 152 139 139 127
181 182 184 180 177 174 170 173 175 173 170 168 168 168 167 165 170 170 162 166 159 149 147 145 146 150 147 141 133 160 151 168 167 163 163 164 157 163 161 157 143 150 143
182 187 188 185 181 180 178 177 177 179 175 169 171 172 172 170 176 179 175 175 174 165 159 159 153 155 157 149 144 155 185 185 169 170 168 169 171 175 173 169 159 161 154
186 191 192 188 187 184 186 182 182 183 180 178 178 184 181 181 184 180 181 184 177 175 170 167 170 179 189 169 159 150 153 166 171 172 174 180 183 191 193 189 175 175 171
189 193 193 192 192 188 189 188 187 186 185 185 190 195 190 185 185 182 187 187 188 182 183 186 194 194 186 184 173 161 163 184 174 185 190 190 191 201 211 213 202 190 193
192 192 195 193 194 192 191 191 193 194 195 198 203 201 198 200 193 187 188 191 195 194 198 196 195 196 178 171 176 175 191 206 197 203 200 198 199 202 212 222 222 209 199
185 192 193 196 198 198 197 194 198 202 204 206 209 211 210 208 206 202 195 197 195 202 208 197 200 196 193 194 200 194 204 220 228 219 215 208 204 205 215 223 230 224 220
191 191 191 196 200 200 201 201 203 205 213 217 219 219 220 215 218 214 210 205 206 209 213 213 215 210 208 206 210 230 245 241 236 233 225 216 208 224 236 231 227 230 230
192 194 194 198 202 202 205 206 209 212 218 222 221 222 219 216 222 209 214 216 218 219 214 220 217 211 217 218 232 257 261 255 236 233 240 242 238 240 230 232 232 230 229
190 189 194 196 204 203 206 208 211 213 221 226 224 223 217 216 213 213 209 214 214 217 217 212 216 215 218 223 237 263 272 257 250 247 248 247 235 241 229 241 242 233 239
185 189 192 197 201 204 207 207 202 197 205 217 221 222 220 218 220 220 222 219 218 220 215 215 220 221 224 226 229 233 305 280 256 247 246 238 235 236 233 236 244 241 243
185 186 191 196 201 203 206 205 198 200 192 204 213 217 222 218 222 224 223 221 222 223 221 220 224 226 227 239 228 220 210 254 326 292 266 250 246 242 234 236 240 241 247
186 188 191 194 201 201 203 201 204 201 190 202 208 213 217 221 224 226 227 217 221 224 228 228 229 229 226 232 236 233 239 261 229 312 300 303 250 244 239 237 243 244 246
182 185 191 192 197 198 201 207 214 214 212 209 206 214 221 224 225 228 228 225 227 231 229 230 233 232 230 234 234 220 229 237 251 236 269 248 244 253 243 245 244 244 241
180 183 191 192 198 202 207 209 210 219 216 217 212 215 224 226 227 230 233 232 236 237 235 236 239 244 239 239 245 241 227 204 218 214 231 246 235 263 253 248 246 245 246
Height
810 814 817 819 821 823 824 822 823 823 824 824 823 824 825 827 828 828 829 831 832 832 833 833 835 836 838 838 839 840 841 842 844 846 847 848 849 850 851 851 852 852 853
808 814 817 820 822 823 824 825 825 825 825 826 826 826 827 829 830 830 832 833 836 837 837 837 838 839 840 841 843 844 844 845 847 849 850 851 851 852 853 854 854 855 855
809 815 818 820 822 823 824 825 827 828 828 828 828 828 829 831 832 833 834 836 838 839 839 839 840 842 843 845 847 849 849 850 850 851 852 853 854 855 856 856 857 857 858
810 816 819 822 823 824 825 826 828 829 830 831 831 831 830 832 833 834 837 838 839 839 840 841 843 845 848 849 851 852 853 853 853 854 854 856 857 858 858 859 860 860 861
812 816 819 822 825 826 828 828 830 831 832 833 832 833 834 836 837 837 837 839 840 841 843 845 845 847 848 851 851 852 854 855 856 856 857 859 860 861 862 862 864 864 865
813 817 821 824 826 828 830 831 831 832 834 834 834 835 836 838 838 838 839 840 842 844 846 847 848 850 852 853 853 854 855 856 857 857 858 861 862 864 864 865 867 867 867
815 819 822 825 827 830 832 833 833 834 835 836 837 836 838 838 841 841 842 843 845 846 848 849 850 852 854 854 854 855 857 857 858 859 860 862 863 865 867 868 869 869 870
817 821 824 827 829 831 833 834 834 835 836 838 838 839 839 840 843 844 845 846 847 850 851 851 852 854 856 856 856 856 857 858 860 861 862 864 865 867 868 869 870 871 872
820 823 826 829 831 833 834 834 835 836 838 838 840 841 841 843 844 846 847 848 850 852 853 853 855 856 856 857 858 860 860 861 861 862 864 866 868 869 870 871 873 873 874
820 823 826 830 832 834 835 836 837 838 839 841 842 843 844 845 847 848 849 851 852 854 854 856 856 857 858 859 860 861 862 863 864 865 865 867 869 871 873 874 875 876 877
823 824 827 830 832 834 835 837 838 840 842 843 845 845 847 848 850 850 851 853 855 856 857 858 858 859 860 861 863 863 864 865 866 866 867 868 870 871 874 875 876 878 878
822 823 827 829 831 833 835 837 839 840 842 844 846 847 849 850 851 852 853 855 857 858 858 859 859 860 862 862 864 865 866 867 867 868 870 870 871 873 874 875 877 879 880
818 823 826 829 831 833 835 837 839 840 842 844 847 848 850 852 852 853 855 856 858 859 859 861 861 861 863 864 865 866 867 868 869 870 871 872 873 875 876 876 878 879 880
818 821 825 828 830 833 835 837 838 840 843 845 847 848 850 852 853 854 856 858 859 860 860 862 863 863 864 865 866 867 868 869 871 871 872 873 874 876 877 878 879 881 882
819 821 825 828 830 832 835 837 838 840 842 845 848 849 850 852 853 855 856 859 861 862 861 862 863 864 866 867 868 868 869 871 872 872 872 873 874 876 877 879 880 881 882
817 820 824 827 830 833 834 837 838 840 842 845 848 848 850 852 853 855 857 858 860 862 863 864 865 866 866 867 868 869 870 870 872 872 873 873 874 876 878 880 880 880 883
812 818 822 826 830 832 835 837 839 841 843 845 847 849 851 852 854 855 857 858 860 862 864 865 866 866 866 867 869 870 870 871 872 872 873 874 874 876 878 879 881 881 881
813 815 820 825 828 831 833 836 838 841 843 844 846 848 850 852 854 855 856 858 860 862 863 864 865 866 867 867 868 869 870 871 871 872 873 874 875 876 877 879 880 881 881
807 813 817 821 824 828 832 835 838 840 842 844 846 847 849 851 852 854 855 856 858 860 862 864 865 867 867 868 868 869 869 870 870 871 872 874 874 875 877 877 878 880 882
804 809 815 818 822 826 831 835 838 840 840 842 844 846 848 850 851 852 854 855 857 858 860 862 864 866 867 868 869 869 868 868 868 868 869 871 872 872 874 875 877 878 880
799 804 811 816 820 824 828 832 835 837 838 840 842 844 847 849 850 851 853 854 854 856 858 860 862 864 865 867 869 869 866 865 865 864 866 867 868 870 871 874 875 876 877
793 799 804 811 816 820 825 828 832 834 836 837 840 843 846 848 849 850 851 852 853 854 856 858 860 861 864 865 866 867 867 864 861 861 862 863 864 866 868 869 872 873 874
790 793 799 804 810 817 821 826 830 834 834 836 838 841 844 847 848 849 850 850 851 853 853 855 857 860 861 862 863 865 867 866 860 858 859 859 861 862 863 864 868 870 871
787 792 795 802 807 813 818 823 825 826 829 832 835 838 841 844 847 848 848 849 849 851 852 852 855 857 859 860 861 861 862 860 860 860 857 856 857 858 858 860 861 864 866
785 790 797 799 805 810 814 818 822 824 826 829 833 836 838 841 843 845 847 847 848 848 849 850 852 853 855 857 857 858 857 858 859 860 858 855 856 853 856 856 857 858 861
782 788 794 797 799 804 809 813 818 822 823 826 829 832 835 838 840 841 844 845 845 846 846 847 848 850 850 852 853 855 854 853 854 854 854 852 852 850 850 851 851 853 855